User: anonymous   Login
Location: The Top Of The Sky Mini Observatory
(41.4300°N, 81.2300°W)
Time: 00:51:02
(UTC-04:00)
Language:

Iridium 86 - Orbit

View from above orbital plane
View from above orbital plane
View from above satellite
View from above satellite

Ground track
Ground track

The orbit data is extracted from the following two-line orbital elements,

1 25528U 98066B   14303.33097055  .00000728  00000-0  25274-3 0  2054
2 25528 086.3993 031.5099 0002037 113.9687 246.1722 14.34222011841643
Epoch (UTC): 30 October 2014 07:56:35
Eccentricity: 0.0002037
inclination: 86.3993°
perigee height: 776 km
apogee height: 779 km
right ascension of ascending node: 31.5099°
argument of perigee: 113.9687°
revolutions per day: 14.34222011
mean anomaly at epoch: 246.1722°
orbit number at epoch: 84164

The dashed part of the orbit path shows where the satellite is in the earth's shadow,  

DLR